Albion, NE

1:47 PM CST on January 20, 2018 (GMT -0600)
Albion Municipal

Weather History for KBVN - April, 2013

Change the Weather History Date:

Tuesday, April 9, 2013

  Actual Average (KOFK) Record (KOFK)
Temperature  
Mean Temperature 34 °F -  
Max Temperature 45 °F 58 °F 89 °F (1930)
Min Temperature 23 °F 33 °F 8 °F (1928)
Degree Days  
Heating Degree Days 30    
Moisture  
Dew Point 29 °F    
Average Humidity 90    
Maximum Humidity 96    
Minimum Humidity 84    
Precipitation  
Precipitation 0.93 in - - ()
Sea Level Pressure  
Sea Level Pressure 29.87 in    
Wind  
Wind Speed 24 mph (North)    
Max Wind Speed 32 mph    
Max Gust Speed 43 mph    
Visibility 5 miles    
Events Rain , Snow , Thunderstorm    
Averages and records for this station are not official NWS values.
T = Trace of Precipitation, MM = Missing Value Source: NWS Daily Summary

Daily Weather History Graph

Daily Weather History Graph

Search for Another Location

Airport or City:

Trip Planner

Search our weather history database for the weather conditions in past years. The results will help you decide how hot, cold, wet, or windy it might be!

Date:

Astronomy

Apr. 09, 2013 Rise Set
Actual Time 7:01 AM CDT 8:06 PM CDT
Civil Twilight 6:32 AM CDT 8:35 PM CDT
Nautical Twilight 5:58 AM CDT 9:09 PM CDT
Astronomical Twilight 5:23 AM CDT 9:45 PM CDT
Moon 6:25 AM CDT (4/9) 7:44 PM CDT (4/9)
Length of Visible Light 14h 02m
Length of Day
13h 05m
Waning Crescent, 1% of the Moon is Illuminated
Apr 9
Waning Crescent
Apr 10
New
Apr 18
First Quarter
Apr 25
Full
May 2
Last Quarter

Hourly Weather History & Observations

Time (CDT) Temp. Windchill Dew Point Humidity Pressure Visibility Wind Dir Wind Speed Gust Speed Precip Events Conditions
12:15 AM 46.4 °F 37.7 °F 44.1 °F 92% 29.70 in 1.0 mi ENE 26.5 mph 33.4 mph 0.26 in Thunderstorm Thunderstorm
12:35 AM 46.2 °F 36.6 °F 43.7 °F 91% 29.67 in 5.0 mi ENE 32.2 mph 41.4 mph 0.38 in Rain , Thunderstorm Light Thunderstorms and Rain
12:55 AM 45.7 °F 36.2 °F 43.7 °F 93% 29.69 in 10.0 mi NE 29.9 mph 36.8 mph 0.38 in Rain , Thunderstorm Light Thunderstorms and Rain
1:15 AM 45.0 °F 36.4 °F 42.8 °F 92% 29.71 in 10.0 mi NNE 23.0 mph 34.5 mph N/A Thunderstorm Unknown
1:35 AM 44.2 °F 35.9 °F 42.1 °F 92% 29.70 in 10.0 mi North 20.7 mph 28.8 mph N/A   Overcast
1:55 AM 43.3 °F 34.0 °F 41.2 °F 92% 29.70 in 10.0 mi North 24.2 mph 29.9 mph N/A Rain Light Rain
2:15 AM 42.4 °F 32.0 °F 40.3 °F 92% 29.68 in 10.0 mi NNE 28.8 mph 35.7 mph N/A Rain Light Rain
2:35 AM 42.1 °F 31.3 °F 40.3 °F 93% 29.66 in 2.0 mi NNE 29.9 mph 38.0 mph 0.03 in   Overcast
2:55 AM 41.9 °F 31.5 °F 40.1 °F 93% 29.66 in 2.5 mi NNE 27.6 mph 36.8 mph 0.05 in Thunderstorm Unknown
3:15 AM 41.4 °F 30.9 °F 39.7 °F 94% 29.66 in 1.2 mi NNE 26.5 mph 40.3 mph 0.07 in Thunderstorm Unknown
3:35 AM 41.0 °F 31.1 °F 39.6 °F 95% 29.69 in 1.8 mi NNE 23.0 mph 32.2 mph 0.13 in Thunderstorm Unknown
3:55 AM 40.5 °F 32.8 °F 39.2 °F 95% 29.74 in 2.0 mi North 13.8 mph 27.6 mph 0.20 in Thunderstorm Thunderstorm
4:15 AM 39.7 °F 30.3 °F 38.5 °F 95% 29.72 in 3.0 mi North 19.6 mph 29.9 mph 0.05 in Rain , Thunderstorm Thunderstorms and Rain
4:35 AM 39.6 °F 29.5 °F 38.3 °F 95% 29.73 in 4.0 mi North 21.9 mph 26.5 mph 0.07 in Rain Heavy Rain
4:55 AM 38.7 °F 29.5 °F 37.6 °F 96% 29.74 in 7.0 mi North 17.3 mph 34.5 mph 0.10 in Rain Rain
5:15 AM 37.9 °F 27.3 °F 36.7 °F 95% 29.81 in 10.0 mi NNW 21.9 mph 29.9 mph N/A Rain , Thunderstorm Rain
5:35 AM 36.9 °F 26.2 °F 35.8 °F 96% 29.81 in 3.0 mi North 20.7 mph 28.8 mph 0.03 in Thunderstorm Overcast
5:55 AM 35.1 °F 23.3 °F 33.8 °F 95% 29.80 in 5.0 mi North 23.0 mph 32.2 mph 0.03 in Rain Light Rain
6:15 AM 34.2 °F 21.0 °F 33.1 °F 96% 29.77 in 10.0 mi North 27.6 mph 36.8 mph N/A   Overcast
6:35 AM 33.4 °F 19.8 °F 32.4 °F 96% 29.73 in 10.0 mi NNE 28.8 mph 42.6 mph N/A   Mostly Cloudy
6:55 AM 33.4 °F 20.1 °F 32.4 °F 96% 29.74 in 10.0 mi NNE 27.6 mph 36.8 mph N/A   Scattered Clouds
7:15 AM 33.3 °F 20.3 °F 32.2 °F 96% 29.78 in 10.0 mi North 25.3 mph 34.5 mph N/A   Mostly Cloudy
7:35 AM 33.3 °F 20.9 °F 32.2 °F 96% 29.81 in 10.0 mi North 23.0 mph 29.9 mph N/A   Overcast
7:55 AM 33.4 °F 21.7 °F 32.4 °F 96% 29.84 in 10.0 mi North 20.7 mph 32.2 mph N/A   Overcast
8:15 AM 33.3 °F 21.2 °F 32.0 °F 95% 29.87 in 10.0 mi North 21.9 mph 31.1 mph N/A   Overcast
8:35 AM 33.1 °F 20.3 °F 32.0 °F 96% 29.87 in 10.0 mi North 24.2 mph 31.1 mph N/A   Overcast
8:55 AM 32.9 °F 20.1 °F 32.0 °F 96% 29.85 in 10.0 mi North 24.2 mph 35.7 mph N/A   Overcast
9:15 AM 33.4 °F 21.1 °F 32.2 °F 95% 29.86 in 10.0 mi North 23.0 mph 39.1 mph N/A   Overcast
9:35 AM 33.8 °F 21.0 °F 32.0 °F 93% 29.85 in 10.0 mi North 25.3 mph 35.7 mph N/A   Overcast
9:55 AM 32.2 °F 19.4 °F 30.4 °F 93% 29.88 in 5.0 mi North 23.0 mph 35.7 mph N/A   Overcast
10:15 AM 30.0 °F 16.9 °F 27.9 °F 92% 29.90 in 2.5 mi North 21.9 mph 35.7 mph N/A   Overcast
10:35 AM 28.6 °F 13.2 °F 26.1 °F 90% 29.90 in 2.0 mi North 28.8 mph 34.5 mph N/A   Overcast
10:55 AM 27.9 °F 12.3 °F 25.3 °F 90% 29.89 in 2.0 mi North 28.8 mph 40.3 mph N/A   Overcast
11:15 AM 27.5 °F 12.9 °F 24.8 °F 90% 29.91 in 2.5 mi North 24.2 mph 36.8 mph N/A   Overcast
11:35 AM 27.0 °F 12.2 °F 23.9 °F 88% 29.94 in 3.0 mi North 24.2 mph 33.4 mph N/A   Overcast
11:55 AM 27.1 °F 13.4 °F 24.3 °F 89% 29.95 in 4.0 mi North 20.7 mph 34.5 mph N/A   Overcast
12:15 PM 26.6 °F 12.7 °F 23.9 °F 90% 29.98 in 5.0 mi North 20.7 mph 31.1 mph N/A   Overcast
12:35 PM 26.6 °F 10.8 °F 23.7 °F 89% 29.95 in 5.0 mi North 27.6 mph 41.4 mph N/A   Overcast
12:55 PM 26.6 °F 11.7 °F 23.7 °F 89% 29.93 in 4.0 mi North 24.2 mph 32.2 mph N/A   Overcast
1:15 PM 26.4 °F 10.9 °F 23.2 °F 88% 29.94 in 1.0 mi North 26.5 mph 32.2 mph N/A Snow Light Snow
1:35 PM 26.4 °F 12.1 °F 22.6 °F 86% 29.93 in 2.5 mi North 21.9 mph 34.5 mph N/A Snow , Thunderstorm Light Thunderstorms and Snow
1:55 PM 25.7 °F 9.3 °F 22.1 °F 86% 29.90 in 1.8 mi North 28.8 mph 41.4 mph N/A Snow Light Snow
2:15 PM 25.5 °F 10.3 °F 21.9 °F 86% 29.91 in 1.0 mi North 24.2 mph 38.0 mph N/A Snow , Thunderstorm Light Thunderstorms and Snow
2:35 PM 24.8 °F 9.6 °F 21.0 °F 86% 29.93 in 1.2 mi North 23.0 mph 41.4 mph N/A Snow , Thunderstorm Light Thunderstorms and Snow
2:55 PM 24.8 °F 9.0 °F 21.0 °F 86% 29.98 in 1.8 mi North 25.3 mph 40.3 mph 0.01 in Snow , Thunderstorm Light Thunderstorms and Snow
3:15 PM 25.3 °F 10.3 °F 21.4 °F 85% 29.88 in 2.5 mi North 23.0 mph 33.4 mph 0.02 in Snow , Thunderstorm Light Thunderstorms and Snow
3:35 PM 25.5 °F 10.9 °F 22.1 °F 87% 29.95 in 0.8 mi North 21.9 mph 40.3 mph 0.03 in Snow , Thunderstorm Light Thunderstorms and Snow
3:55 PM 25.5 °F 11.3 °F 21.9 °F 86% 29.96 in 1.2 mi North 20.7 mph 28.8 mph 0.03 in Snow , Thunderstorm Light Thunderstorms and Snow
4:15 PM 25.5 °F 11.6 °F 22.1 °F 87% 29.96 in 1.0 mi North 19.6 mph 29.9 mph 0.01 in Snow , Thunderstorm Light Thunderstorms and Snow
4:35 PM 24.3 °F 8.6 °F 21.0 °F 87% 29.93 in 0.8 mi North 24.2 mph 34.5 mph 0.01 in Snow , Thunderstorm Light Thunderstorms and Snow
4:55 PM 23.9 °F 9.1 °F 20.5 °F 87% 29.89 in 1.0 mi North 20.7 mph 33.4 mph 0.02 in Snow , Thunderstorm Light Thunderstorms and Snow
5:15 PM 24.6 °F 11.7 °F 21.0 °F 86% 30.09 in 1.2 mi NW 16.1 mph 28.8 mph N/A Snow , Thunderstorm Light Thunderstorms and Snow
5:35 PM 24.8 °F 12.4 °F 21.2 °F 86% 29.97 in 1.2 mi NNW 15.0 mph 34.5 mph 0.01 in Snow , Thunderstorm Light Thunderstorms and Snow
5:55 PM 25.5 °F 12.0 °F 22.1 °F 87% 29.98 in 0.8 mi North 18.4 mph 26.5 mph 0.02 in Snow , Thunderstorm Light Thunderstorms and Snow
6:15 PM 24.6 °F 12.2 °F 21.6 °F 88% 29.94 in 0.8 mi North 15.0 mph 33.4 mph 0.02 in Snow , Thunderstorm Light Thunderstorms and Snow
6:35 PM 24.3 °F 10.8 °F 21.2 °F 88% 29.98 in 1.0 mi North 17.3 mph 25.3 mph 0.03 in Snow , Thunderstorm Light Thunderstorms and Snow
6:55 PM 23.9 °F 9.9 °F 20.7 °F 87% 29.98 in 1.0 mi NNW 18.4 mph 25.3 mph 0.04 in Snow , Thunderstorm Light Thunderstorms and Snow
7:15 PM 24.1 °F 10.1 °F 20.8 °F 87% 29.96 in 1.5 mi North 18.4 mph 27.6 mph 0.01 in Snow , Thunderstorm Light Thunderstorms and Snow
7:35 PM 24.8 °F 9.6 °F 21.7 °F 88% 29.94 in 1.2 mi North 23.0 mph 27.6 mph 0.02 in Snow , Thunderstorm Light Thunderstorms and Snow
7:55 PM 24.8 °F 11.1 °F 21.6 °F 87% 30.02 in 1.0 mi NNW 18.4 mph 24.2 mph 0.03 in Snow Light Snow
8:15 PM 24.8 °F 10.7 °F 21.4 °F 87% 29.98 in 3.0 mi NNW 19.6 mph 28.8 mph 0.01 in Snow , Thunderstorm Light Thunderstorms and Snow
8:35 PM 25.5 °F 13.3 °F 22.1 °F 87% 30.04 in 2.5 mi North 15.0 mph 21.9 mph 0.01 in Snow Light Snow
8:55 PM 25.5 °F 12.4 °F 22.1 °F 87% 30.02 in 3.0 mi North 17.3 mph 27.6 mph 0.02 in Snow , Thunderstorm Light Thunderstorms and Snow
9:15 PM 26.4 °F 13.2 °F 22.5 °F 85% 30.02 in 7.0 mi North 18.4 mph 27.6 mph N/A Snow Light Snow
9:55 PM 26.6 °F 12.0 °F 22.8 °F 86% 30.01 in 7.0 mi North 23.0 mph 31.1 mph N/A   Overcast
10:15 PM 26.6 °F 11.7 °F 22.6 °F 85% 30.00 in 10.0 mi North 24.2 mph 29.9 mph N/A   Overcast
10:35 PM 26.6 °F 11.7 °F 22.5 °F 84% 30.00 in 10.0 mi North 24.2 mph 33.4 mph N/A   Overcast
10:55 PM 26.6 °F 12.0 °F 22.5 °F 84% 29.99 in 10.0 mi North 23.0 mph 33.4 mph N/A   Overcast
11:15 PM 26.6 °F 12.7 °F 22.5 °F 84% 30.01 in 10.0 mi North 20.7 mph 28.8 mph N/A   Overcast